DW8356 Weather Reports


time (UTC)temp
C
wind
direction
speed
KPH
gust
KPH
rain 1hr
cm
rain 24hr
cm
rain mn
cm
humidity
%
barometer
mb
20260505231021 29 331 8.0 17.7 0.00 0.00 0.00 49 1004.5
20260505230519 29 276 8.0 20.9 0.00 0.00 0.00 48 1004.4
20260505230038 30 325 6.4 20.9 0.00 0.00 0.00 47 1004.2
20260505225521 30 348 6.4 16.1 0.00 0.00 0.00 46 1004.1
20260505225022 30 66 8.0 20.9 0.00 0.00 0.00 46 1004.2
20260505224539 31 331 9.7 20.9 0.00 0.00 0.00 45 1004.1
20260505224021 31 43 1.6 6.4 0.00 0.00 0.00 50 1004.1
20260505223528 32 0 0.0 4.8 0.00 0.00 0.00 51 1003.9
20260505223040 31 0 1.6 4.8 0.00 0.00 0.00 50 1003.6
20260505222522 32 0 1.6 3.2 0.00 0.00 0.00 51 1003.5
20260505222022 32 161 0.0 6.4 0.00 0.00 0.00 52 1003.6
20260505221532 32 163 0.0 6.4 0.00 0.00 0.00 51 1003.4
20260505221027 32 207 1.6 6.4 0.00 0.00 0.00 51 1003.4
20260505220519 32 325 1.6 6.4 0.00 0.00 0.00 51 1003.6
20260505220036 32 302 0.0 4.8 0.00 0.00 0.00 51 1003.7
20260505215522 32 293 0.0 3.2 0.00 0.00 0.00 50 1003.8
20260505215021 32 0 0.0 3.2 0.00 0.00 0.00 51 1003.8
20260505214559 32 227 1.6 4.8 0.00 0.00 0.00 51 1003.9
20260505214022 32 244 1.6 6.4 0.00 0.00 0.00 50 1003.8
20260505213521 32 247 1.6 16.1 0.00 0.00 0.00 50 1003.8
20260505213042 32 135 4.8 16.1 0.00 0.00 0.00 50 1004.0
20260505212524 32 163 0.0 9.7 0.00 0.00 0.00 49 1004.0
20260505212021 32 214 1.6 9.7 0.00 0.00 0.00 52 1004.1
20260505211535 32 88 1.6 8.0 0.00 0.00 0.00 50 1004.0
20260505211024 32 165 1.6 8.0 0.00 0.00 0.00 51 1004.2
20260505210520 32 0 0.0 8.0 0.00 0.00 0.00 52 1004.2
20260505210040 32 211 1.6 8.0 0.00 0.00 0.00 53 1004.2
20260505205522 32 225 1.6 6.4 0.00 0.00 0.00 53 1004.2
20260505205022 32 202 1.6 6.4 0.00 0.00 0.00 54 1004.3
20260505204548 31 138 1.6 6.4 0.00 0.00 0.00 56 1004.3
20260505204022 32 210 1.6 8.0 0.00 0.00 0.00 54 1004.4
20260505203521 32 339 1.6 8.0 0.00 0.00 0.00 54 1004.6
20260505203046 31 334 1.6 14.5 0.00 0.00 0.00 57 1004.7
20260505202522 32 136 3.2 14.5 0.00 0.00 0.00 55 1004.6
20260505202022 31 179 1.6 11.3 0.00 0.00 0.00 57 1004.6
20260505201539 31 186 1.6 12.9 0.00 0.00 0.00 54 1004.7
20260505201021 32 216 1.6 12.9 0.00 0.00 0.00 53 1004.7
20260505200522 32 229 3.2 11.3 0.00 0.00 0.00 54 1004.5
20260505200046 31 199 1.6 6.4 0.00 0.00 0.00 55 1004.8
20260505195522 32 311 1.6 8.0 0.00 0.00 0.00 56 1004.8
20260505195022 31 242 1.6 8.0 0.00 0.00 0.00 57 1004.8
20260505194544 31 183 1.6 6.4 0.00 0.00 0.00 57 1004.8
20260505194023 31 265 1.6 8.0 0.00 0.00 0.00 57 1004.8
20260505193523 31 158 3.2 8.0 0.00 0.00 0.00 56 1004.9
20260505193042 31 225 1.6 6.4 0.00 0.00 0.00 60 1004.7
20260505192523 31 360 1.6 8.0 0.00 0.00 0.00 59 1004.8
20260505192023 30 148 1.6 8.0 0.00 0.00 0.00 59 1004.9
20260505191538 30 261 3.2 9.7 0.00 0.00 0.00 58 1004.9
20260505191023 30 182 1.6 9.7 0.00 0.00 0.00 61 1004.8
20260505190523 30 196 3.2 6.4 0.00 0.00 0.00 61 1004.9
20260505190039 30 203 1.6 11.3 0.00 0.00 0.00 61 1004.9
20260505185522 29 28 3.2 11.3 0.00 0.00 0.00 62 1004.9
20260505185021 29 229 1.6 11.3 0.00 0.00 0.00 63 1005.0
20260505184538 28 216 3.2 11.3 0.00 0.00 0.00 63 1004.9
20260505184021 28 227 1.6 9.7 0.00 0.00 0.00 64 1005.1
20260505183521 28 236 1.6 9.7 0.00 0.00 0.00 64 1005.0
20260505183038 28 169 1.6 14.5 0.00 0.00 0.00 65 1005.0
20260505182522 28 170 3.2 14.5 0.00 0.00 0.00 64 1005.0
20260505182021 28 211 1.6 8.0 0.00 0.00 0.00 64 1005.0
20260505181537 28 195 1.6 11.3 0.00 0.00 0.00 64 1005.2
20260505181021 28 188 3.2 14.5 0.00 0.00 0.00 63 1005.2
20260505180522 28 360 3.2 14.5 0.00 0.00 0.00 64 1005.1
20260505175523 28 191 4.8 11.3 0.00 0.00 0.00 64 1005.0
20260505175025 28 165 1.6 9.7 0.00 0.00 0.00 63 1005.0
20260505174556 28 175 3.2 11.3 0.00 0.00 0.00 64 1005.0
20260505174022 28 209 3.2 11.3 0.00 0.00 0.00 64 1005.2
20260505173524 28 134 1.6 11.3 0.00 0.00 0.00 65 1005.0
20260505173044 28 159 4.8 11.3 0.00 0.00 0.00 65 1005.0
20260505172521 27 215 3.2 11.3 0.00 0.00 0.00 65 1005.2
20260505172021 27 263 1.6 11.3 0.00 0.00 0.00 66 1005.2
20260505171537 27 209 3.2 11.3 0.00 0.00 0.00 66 1005.4
20260505171021 27 148 1.6 12.9 0.00 0.00 0.00 66 1005.2
20260505170521 27 208 4.8 12.9 0.00 0.00 0.00 66 1005.5
20260505170037 27 200 3.2 14.5 0.00 0.00 0.00 66 1005.2
20260505165522 27 263 3.2 14.5 0.00 0.00 0.00 66 1005.4
20260505165024 27 145 3.2 8.0 0.00 0.00 0.00 67 1005.4
20260505164535 27 241 1.6 8.0 0.00 0.00 0.00 67 1005.3
20260505164021 27 123 1.6 11.3 0.00 0.00 0.00 67 1005.4
20260505163521 27 215 3.2 11.3 0.00 0.00 0.00 67 1005.3
20260505163039 26 242 3.2 11.3 0.00 0.00 0.00 68 1005.2
20260505162521 26 240 3.2 11.3 0.00 0.00 0.00 69 1005.2
20260505162021 26 304 3.2 11.3 0.00 0.00 0.00 69 1005.1
20260505161539 26 187 3.2 14.5 0.00 0.00 0.00 69 1005.0
20260505161024 26 196 4.8 14.5 0.00 0.00 0.00 68 1005.0
20260505160523 26 318 3.2 14.5 0.00 0.00 0.00 69 1004.9
20260505153036 25 135 4.8 14.5 0.00 0.00 0.00 71 1004.7
20260505152521 25 197 4.8 14.5 0.00 0.00 0.00 72 1004.7
20260505152020 25 114 4.8 16.1 0.00 0.00 0.00 73 1004.9
20260505151535 25 185 4.8 16.1 0.00 0.00 0.00 73 1005.0
20260505151021 25 219 6.4 16.1 0.00 0.00 0.00 73 1005.1
20260505150521 25 154 4.8 12.9 0.00 0.00 0.00 73 1004.9
20260505140521 23 212 3.2 11.3 0.00 0.00 0.00 78 1005.0
20260505125018 22 186 4.8 12.9 0.00 0.00 0.00 81 1004.6
20260505124538 22 196 1.6 11.3 0.00 0.00 0.00 81 1004.5
20260505124018 22 77 3.2 14.5 0.00 0.00 0.00 81 1004.6
20260505123518 22 173 3.2 14.5 0.00 0.00 0.00 81 1004.5
20260505123037 22 155 3.2 14.5 0.00 0.00 0.00 81 1004.3
20260505122518 22 186 4.8 14.5 0.00 0.00 0.00 81 1004.1
20260505122022 22 232 4.8 14.5 0.00 0.00 0.00 81 1004.1
20260505121540 22 166 4.8 11.3 0.00 0.00 0.00 80 1004.2
20260505121021 22 176 3.2 14.5 0.00 0.00 0.00 80 1004.1
20260505120522 22 151 4.8 17.7 0.00 0.00 0.00 80 1004.1
20260505120041 22 234 4.8 17.7 0.00 0.00 0.00 81 1004.1
20260505115521 22 206 3.2 19.3 0.00 0.00 0.00 80 1004.2
20260505115018 22 189 4.8 19.3 0.00 0.00 0.00 81 1004.1
20260505114537 21 155 4.8 12.9 0.00 0.00 0.00 81 1004.0
20260505114021 22 208 3.2 17.7 0.00 0.00 0.00 80 1003.9
20260505113524 22 161 4.8 17.7 0.00 0.00 0.00 80 1003.9
20260505113036 22 156 4.8 16.1 0.00 0.00 0.00 80 1003.9
20260505112518 22 207 3.2 16.1 0.00 0.00 0.00 80 1003.7
20260505112018 22 205 4.8 22.5 0.00 0.00 0.00 80 1003.8
20260505111539 21 230 6.4 22.5 0.00 0.00 0.00 81 1003.9
20260505111018 21 200 4.8 11.3 0.00 0.00 0.00 81 1003.8
20260505110519 21 205 4.8 11.3 0.00 0.00 0.00 82 1004.0
20260505102025 21 195 4.8 14.5 0.00 0.00 0.00 80 1003.9
20260505101535 21 143 3.2 12.9 0.00 0.00 0.00 81 1004.0
20260505101021 21 194 4.8 11.3 0.00 0.00 0.00 80 1003.9
20260505100521 21 163 3.2 11.3 0.00 0.00 0.00 80 1003.9
20260505100035 21 161 4.8 14.5 0.00 0.00 0.00 80 1003.9
20260505095520 21 201 4.8 17.7 0.00 0.00 0.00 81 1003.9
20260505095024 21 240 6.4 17.7 0.00 0.00 0.00 80 1004.1
20260505094537 21 194 4.8 16.1 0.00 0.00 0.00 81 1004.1
20260505094020 21 84 3.2 16.1 0.00 0.00 0.00 81 1004.3
20260505093522 21 188 6.4 17.7 0.00 0.00 0.00 81 1004.2
20260505093040 21 168 4.8 17.7 0.00 0.00 0.00 81 1004.2
20260505092521 21 151 6.4 16.1 0.00 0.00 0.00 81 1004.2
20260505092021 21 163 3.2 16.1 0.00 0.00 0.00 81 1004.4
20260505091548 21 202 1.6 16.1 0.00 0.00 0.00 81 1004.4
20260505091019 21 205 3.2 12.9 0.00 0.00 0.00 81 1004.5
20260505090521 21 178 3.2 12.9 0.00 0.00 0.00 82 1004.4
20260505090034 21 191 4.8 12.9 0.00 0.00 0.00 82 1004.4
20260505085521 21 169 4.8 19.3 0.00 0.00 0.00 81 1004.3
20260505085025 21 132 3.2 19.3 0.00 0.00 0.00 81 1004.3
20260505084535 21 312 3.2 17.7 0.00 0.00 0.00 81 1004.3
20260505084023 21 202 6.4 17.7 0.00 0.00 0.00 81 1004.3
20260505083520 21 172 4.8 12.9 0.00 0.00 0.00 81 1004.4
20260505083039 21 36 3.2 12.9 0.00 0.00 0.00 81 1004.4
20260505082520 21 205 4.8 14.5 0.00 0.00 0.00 80 1004.3
20260505082022 21 198 4.8 19.3 0.00 0.00 0.00 80 1004.3
20260505081539 21 195 6.4 19.3 0.00 0.00 0.00 80 1004.4
20260505081020 21 117 4.8 16.1 0.00 0.00 0.00 80 1004.5
20260505080517 21 164 3.2 16.1 0.00 0.00 0.00 80 1004.5
20260505080037 21 264 4.8 16.1 0.00 0.00 0.00 80 1004.5
20260505075520 21 0 4.8 14.5 0.00 0.00 0.00 79 1004.6
20260505075024 21 184 3.2 11.3 0.00 0.00 0.00 79 1004.6
20260505074537 21 215 3.2 11.3 0.00 0.00 0.00 79 1004.7
20260505074021 21 190 3.2 12.9 0.00 0.00 0.00 79 1004.8
20260505073521 22 188 4.8 12.9 0.00 0.00 0.00 78 1004.9
20260505073034 22 182 3.2 19.3 0.00 0.00 0.00 78 1005.0
20260505072524 22 197 3.2 19.3 0.00 0.00 0.00 78 1005.1
20260505072020 22 243 3.2 19.3 0.00 0.00 0.00 78 1005.1
20260505071551 22 161 4.8 12.9 0.00 0.00 0.00 78 1005.2
20260505071020 22 234 3.2 14.5 0.00 0.00 0.00 77 1005.2
20260505070523 22 170 4.8 14.5 0.00 0.00 0.00 77 1005.2
20260505070042 22 140 4.8 14.5 0.00 0.00 0.00 77 1005.3
20260505065522 22 172 3.2 11.3 0.00 0.00 0.00 77 1005.4
20260505065021 22 200 3.2 16.1 0.00 0.00 0.00 77 1005.5
20260505064536 22 197 3.2 16.1 0.00 0.00 0.00 76 1005.6
20260505064021 22 192 1.6 11.3 0.00 0.00 0.00 76 1005.7
20260505063521 22 178 3.2 11.3 0.00 0.00 0.00 76 1005.7
20260505063048 22 182 4.8 16.1 0.00 0.00 0.00 75 1005.7
20260505062526 22 194 4.8 16.1 0.00 0.00 0.00 75 1005.8
20260505062021 22 203 3.2 9.7 0.00 0.00 0.00 75 1005.7
20260505061604 22 201 1.6 12.9 0.00 0.00 0.00 75 1005.7
20260505061020 22 199 4.8 17.7 0.00 0.00 0.00 74 1005.8
20260505060524 22 172 3.2 19.3 0.00 0.00 0.00 74 1005.7
20260505060040 22 81 4.8 19.3 0.00 0.00 0.00 74 1005.7
20260505055525 22 211 3.2 16.1 0.00 0.00 0.00 73 1005.7
20260505055023 22 141 4.8 16.1 0.00 0.00 0.00 73 1005.8
20260505054540 22 120 4.8 14.5 0.00 0.00 0.00 73 1005.9
20260505054023 22 167 3.2 20.9 0.00 0.00 0.00 73 1005.9
20260505053521 22 109 4.8 20.9 0.00 0.00 0.00 73 1005.9
20260505053041 22 117 3.2 14.5 0.00 0.00 0.00 72 1006.0
20260505052523 22 162 3.2 25.7 0.00 0.00 0.00 72 1006.0
20260505052023 22 186 3.2 25.7 0.00 0.00 0.00 72 1006.1
20260505051601 22 142 4.8 12.9 0.00 0.00 0.00 71 1006.1
20260505051023 22 196 3.2 17.7 0.00 0.00 0.00 71 1006.1
20260505050523 22 157 4.8 17.7 0.00 0.00 0.00 71 1006.1
20260505041540 23 264 4.8 12.9 0.00 0.00 0.00 69 1006.2
20260505041022 23 183 4.8 17.7 0.00 0.00 0.00 69 1006.4
20260505040522 23 237 4.8 17.7 0.00 0.00 0.00 69 1006.4
20260505040036 23 184 3.2 14.5 0.00 0.00 0.00 69 1006.5
20260505035522 23 220 3.2 14.5 0.00 0.00 0.00 69 1006.4
20260505035021 23 123 3.2 11.3 0.00 0.00 0.00 69 1006.3
20260505034538 23 190 3.2 11.3 0.00 0.00 0.00 68 1006.3
20260505034023 23 194 3.2 12.9 0.00 0.00 0.00 68 1006.2
20260505033526 23 169 4.8 16.1 0.00 0.00 0.00 68 1006.3
20260505033038 23 181 3.2 16.1 0.00 0.00 0.00 68 1006.4
20260505032523 23 169 3.2 14.5 0.00 0.00 0.00 68 1006.5
20260505032022 23 175 4.8 22.5 0.00 0.00 0.00 67 1006.4
20260505031540 23 207 4.8 22.5 0.00 0.00 0.00 67 1006.4
20260505031022 23 205 4.8 16.1 0.00 0.00 0.00 67 1006.4
20260505030522 23 207 3.2 16.1 0.00 0.00 0.00 67 1006.4
20260505030038 23 161 4.8 12.9 0.00 0.00 0.00 67 1006.4
20260505025523 23 161 3.2 12.9 0.00 0.00 0.00 67 1006.5
20260505025017 23 189 3.2 20.9 0.00 0.00 0.00 67 1006.5
20260505024539 23 243 3.2 20.9 0.00 0.00 0.00 67 1006.4
20260505024018 23 187 1.6 14.5 0.00 0.00 0.00 66 1006.5
20260505023517 23 134 4.8 22.5 0.00 0.00 0.00 66 1006.4
20260505023036 23 169 3.2 22.5 0.00 0.00 0.00 65 1006.4
20260505022517 23 162 3.2 19.3 0.00 0.00 0.00 66 1006.4
20260505022017 23 215 4.8 19.3 0.00 0.00 0.00 65 1006.4
20260505021539 23 189 4.8 16.1 0.00 0.00 0.00 65 1006.3
20260505021017 23 196 4.8 16.1 0.00 0.00 0.00 65 1006.2
20260505020520 23 170 4.8 16.1 0.00 0.00 0.00 65 1006.1
20260505020038 24 144 3.2 19.3 0.00 0.00 0.00 65 1006.2
20260505015521 24 223 4.8 19.3 0.00 0.00 0.00 65 1006.3
20260505015018 24 205 3.2 19.3 0.00 0.00 0.00 65 1006.3
20260505014538 24 184 4.8 19.3 0.00 0.00 0.00 64 1006.3
20260505014021 24 186 4.8 17.7 0.00 0.00 0.00 64 1006.3
20260505013520 24 229 3.2 19.3 0.00 0.00 0.00 63 1006.4
20260505013039 24 191 6.4 19.3 0.00 0.00 0.00 63 1006.2
20260505012520 24 166 4.8 20.9 0.00 0.00 0.00 63 1006.3
20260505012017 24 234 6.4 20.9 0.00 0.00 0.00 63 1006.2
20260505011541 24 138 6.4 25.7 0.00 0.00 0.00 63 1006.2
20260505011017 25 273 6.4 25.7 0.00 0.00 0.00 63 1006.1
20260505010517 25 178 3.2 19.3 0.00 0.00 0.00 62 1006.2
20260505010037 25 184 6.4 19.3 0.00 0.00 0.00 62 1006.1
20260505005518 25 198 3.2 20.9 0.00 0.00 0.00 62 1006.1
20260505005017 25 192 4.8 20.9 0.00 0.00 0.00 61 1006.2
20260505004538 25 175 6.4 24.1 0.00 0.00 0.00 61 1006.2
20260505004020 25 157 4.8 24.1 0.00 0.00 0.00 61 1006.1
20260505003523 25 209 4.8 17.7 0.00 0.00 0.00 60 1006.1
20260505003038 25 176 4.8 19.3 0.00 0.00 0.00 59 1006.2
20260505002518 25 134 4.8 24.1 0.00 0.00 0.00 59 1006.2
20260505002017 25 158 8.0 24.1 0.00 0.00 0.00 59 1006.3
20260505001540 25 153 6.4 19.3 0.00 0.00 0.00 59 1006.3
20260505001017 26 224 4.8 20.9 0.00 0.00 0.00 58 1006.4
20260505000517 26 191 6.4 22.5 0.00 0.00 0.00 58 1006.2
20260505000044 26 202 4.8 22.5 0.00 0.00 0.00 58 1006.3
20260504235520 26 166 8.0 24.1 0.00 0.00 0.00 58 1006.4
20260504235024 26 240 9.7 24.1 0.00 0.00 0.00 58 1006.4
20260504234541 26 147 8.0 24.1 0.00 0.00 0.00 57 1006.4
20260504234023 26 130 8.0 30.6 0.00 0.00 0.00 57 1006.5
20260504233522 26 199 8.0 30.6 0.00 0.00 0.00 57 1006.5
20260504233033 26 192 6.4 25.7 0.00 0.00 0.00 57 1006.4
20260504232522 26 200 11.3 25.7 0.00 0.00 0.00 56 1006.4
20260504232021 26 141 6.4 22.5 0.00 0.00 0.00 56 1006.4
20260504231544 26 134 6.4 24.1 0.00 0.00 0.00 56 1006.6